Wind_Speed
61 65 66 66 70 69 69 69 72 72 72 74 73 74 78 78 81 84 83 83 85 88 91 92 95 100 100 99 95 86 82 78 74 88 95 99 101 111 110 111 111 107 107 103
59 59 60 61 63 66 67 67 69 71 73 76 78 79 81 83 85 87 88 89 89 89 90 89 89 91 94 92 93 89 85 78 73 68 71 89 96 104 108 113 113 115 113 113
56 58 60 62 65 67 69 70 71 72 75 77 80 81 83 86 86 86 87 84 79 74 74 73 80 83 88 88 93 89 92 84 78 76 75 67 84 89 101 108 114 114 118 116
57 59 62 65 65 67 70 71 72 73 74 76 80 80 79 78 79 79 80 78 73 69 67 71 77 81 82 86 89 90 90 91 86 80 79 73 70 80 82 99 107 114 116 118
59 60 61 63 65 67 69 71 70 71 73 73 75 77 76 74 76 75 74 69 68 68 67 67 68 75 79 76 83 89 91 92 88 87 84 83 76 62 73 81 96 109 115 114
57 59 60 61 63 64 64 63 61 61 63 65 67 70 70 71 72 73 75 73 72 68 67 62 67 69 70 78 83 84 89 88 81 79 78 74 76 74 77 83 85 93 106 114
52 55 56 55 56 56 57 57 60 60 62 63 64 66 70 72 70 75 76 77 78 77 78 71 74 72 67 72 74 68 60 62 70 74 75 81 80 75 62 73 76 87 99 108
50 53 54 55 56 58 59 61 63 63 60 59 61 65 69 71 73 78 80 82 83 80 80 76 75 71 61 57 60 58 60 64 63 70 78 82 77 74 73 67 81 88 96 107
49 51 54 57 58 59 60 62 63 63 62 61 60 65 70 71 71 79 82 84 86 82 80 75 74 69 57 53 50 52 55 62 66 71 74 79 83 83 73 70 71 90 94 101
53 51 55 56 58 61 63 64 64 65 64 62 60 64 70 71 72 77 82 85 86 86 84 82 74 67 57 53 48 51 55 58 62 66 73 79 79 65 67 66 67 76 89 94
58 57 58 60 61 63 65 68 68 68 68 67 65 65 69 73 76 79 84 88 87 88 85 82 77 72 62 55 48 50 52 56 58 62 67 75 80 68 65 69 68 71 84 93
63 61 61 62 62 63 64 67 69 68 68 68 69 63 72 73 77 79 84 88 88 87 85 83 80 74 65 60 53 54 57 57 55 59 65 70 69 60 61 65 67 69 78 86
68 66 65 61 63 65 66 69 70 69 72 68 70 68 73 73 77 79 81 85 86 89 88 86 82 77 68 62 57 57 60 60 60 61 64 65 55 55 54 58 61 66 73 82
67 67 67 67 66 63 64 70 70 70 74 69 70 63 75 75 75 77 78 84 86 89 89 88 84 80 70 64 60 61 62 62 61 59 60 56 49 49 49 54 55 60 68 71
67 64 68 68 69 64 64 72 73 74 77 70 69 66 66 73 72 74 76 81 82 84 90 91 86 79 71 64 62 64 65 64 63 60 57 48 44 46 44 48 50 52 57 61
70 66 68 65 68 67 62 70 73 72 73 69 69 68 68 70 71 72 73 77 78 79 89 93 87 79 71 67 65 66 67 66 64 58 54 41 40 41 42 45 47 53 61 68
71 68 67 64 68 69 62 70 72 72 73 69 69 69 70 70 71 70 69 73 76 81 89 89 88 73 68 69 66 70 71 70 64 57 51 38 39 40 38 39 41 46 56 66
73 70 70 67 70 67 65 67 69 72 73 69 68 68 70 70 69 70 69 70 75 80 87 86 83 71 70 71 67 70 70 70 66 57 51 44 38 33 33 34 33 35 44 55
71 68 71 71 70 63 62 67 69 71 66 73 68 68 69 70 67 69 68 70 74 79 83 81 77 69 69 72 67 68 69 68 65 58 51 47 37 27 25 26 26 29 37 49
69 71 73 72 71 61 63 67 70 71 67 70 69 67 64 67 66 69 69 71 74 79 77 77 75 68 71 75 66 64 66 66 63 57 51 43 35 27 21 18 20 25 35 47
72 72 74 73 72 63 63 69 67 71 71 72 70 63 61 66 66 67 72 72 72 73 71 71 72 66 69 74 64 61 60 62 57 56 49 40 31 24 17 17 18 27 37 46
76 75 72 76 73 62 65 66 70 75 74 71 68 61 58 61 66 68 72 72 72 75 68 69 69 65 66 75 63 56 55 57 53 53 48 40 32 23 15 13 16 24 36 46
81 79 79 74 67 66 68 70 72 76 71 71 67 64 56 59 65 66 70 74 72 71 70 68 66 66 64 73 63 53 51 51 51 49 49 45 33 26 17 9 14 24 33 43
85 84 80 74 63 68 70 76 79 75 70 68 63 61 58 60 65 65 71 76 75 73 70 63 61 63 63 68 60 49 46 46 46 43 44 43 38 26 14 11 9 19 34 42
87 84 78 72 66 72 74 78 79 74 67 63 60 59 61 62 63 67 73 76 76 73 67 60 56 57 60 65 59 50 43 40 41 40 40 42 40 37 27 14 8 15 29 40
85 83 81 75 71 73 75 77 76 69 65 59 58 61 63 64 66 69 76 76 77 71 66 56 49 51 57 58 57 52 42 38 36 34 32 34 36 34 31 21 11 9 22 36
Wind_Direction
269 272 272 274 276 277 277 278 280 282 281 282 282 284 285 285 285 286 285 284 285 285 286 285 285 285 284 286 283 279 277 268 262 259 258 253 252 246 246 246 247 244 246 248
271 271 274 276 279 280 281 282 283 285 286 287 287 287 289 290 290 291 291 291 291 291 289 287 284 282 282 281 282 283 277 272 274 267 264 253 253 250 246 245 244 245 244 245
276 278 279 280 281 282 283 284 286 286 289 291 290 291 291 292 294 294 294 296 298 295 289 284 281 282 281 281 280 280 276 278 277 275 277 262 248 249 249 247 243 243 242 243
279 281 282 281 281 284 285 286 287 289 291 292 292 293 293 295 295 296 297 300 300 296 291 289 285 281 278 277 279 279 279 278 281 282 276 273 255 246 246 245 244 243 242 239
283 285 285 285 286 288 290 290 290 292 293 294 296 296 297 298 299 301 303 303 303 299 292 291 292 284 279 275 276 279 280 279 279 279 281 274 268 260 248 249 248 245 243 240
283 283 286 289 289 290 293 292 293 297 300 299 299 301 302 302 304 308 308 309 310 312 312 310 310 304 296 284 281 282 284 283 281 274 275 277 266 262 264 246 246 248 244 243
282 283 285 288 290 292 297 298 298 299 301 304 303 305 304 305 310 311 313 314 316 318 321 320 320 312 306 293 290 291 286 280 274 271 265 268 270 266 246 247 250 245 246 242
290 292 291 292 296 297 299 299 300 299 299 302 306 306 303 307 312 313 314 315 317 319 321 320 324 320 307 299 294 288 288 281 273 270 266 264 264 265 257 245 247 245 239 240
292 292 291 290 291 292 296 298 301 303 305 306 307 307 307 311 315 312 315 315 316 320 320 326 325 323 313 304 295 286 281 279 278 276 271 269 269 267 265 255 252 241 239 235
293 296 297 297 298 298 299 300 302 303 306 307 311 311 309 311 313 313 314 315 318 320 324 328 329 326 319 308 299 291 283 278 276 278 277 275 274 270 271 253 252 240 238 232
291 292 294 296 298 300 298 297 300 304 307 310 312 311 310 311 312 315 315 316 319 322 325 326 333 332 325 316 310 300 294 289 285 281 277 274 273 274 265 258 250 244 236 232
289 289 290 293 295 298 298 299 301 303 305 307 313 311 307 310 311 314 316 317 320 322 325 330 336 334 330 321 318 314 308 302 297 289 283 280 277 272 265 255 248 240 234 233
288 291 288 290 294 296 299 300 302 305 307 308 313 313 307 312 313 315 317 317 320 323 329 331 337 336 331 325 321 317 313 314 309 304 295 289 285 273 263 251 245 238 232 231
285 289 288 286 291 296 297 298 302 304 304 307 310 314 308 312 315 317 316 317 323 325 327 331 338 337 331 327 323 321 319 320 316 312 301 294 286 273 262 251 243 235 232 229
284 287 287 286 290 295 297 298 299 304 303 309 309 312 310 311 314 315 318 320 323 324 325 330 337 335 331 330 327 326 323 324 323 319 308 299 285 274 262 250 246 238 232 228
282 286 285 284 291 295 299 296 300 301 303 307 310 310 315 314 314 317 317 318 322 324 326 329 337 334 332 332 331 329 327 327 327 326 312 303 291 280 269 255 248 239 232 227
279 284 283 280 285 294 297 295 301 303 305 309 311 313 313 313 313 316 317 319 323 326 324 329 333 335 333 333 333 331 329 330 331 333 320 311 302 290 276 263 253 242 229 225
277 283 282 279 285 293 290 293 297 300 305 308 310 311 312 312 313 315 316 321 323 326 324 327 333 336 337 335 334 331 330 332 334 339 330 324 316 300 283 271 261 245 231 221
275 279 277 281 285 290 293 291 294 298 305 303 309 309 310 311 311 313 316 320 322 323 322 324 332 337 340 338 336 332 331 333 336 344 336 332 327 315 298 284 264 244 226 216
273 275 278 282 284 291 287 289 292 298 300 303 305 308 309 308 310 311 313 317 320 324 324 324 332 338 342 338 336 333 330 333 337 346 344 337 335 328 314 282 255 232 217 212
272 276 276 281 285 289 289 288 292 293 298 301 306 307 306 305 309 310 313 316 319 323 326 328 332 336 343 337 335 332 330 331 340 343 349 348 345 335 317 283 246 220 210 206
270 271 277 278 282 290 284 287 289 292 295 301 305 303 302 304 307 311 311 314 319 324 327 328 331 333 340 337 334 332 331 332 340 344 356 357 358 347 327 293 253 227 212 205
270 269 272 278 283 286 284 285 287 288 297 300 302 299 301 303 305 310 312 314 316 320 324 327 331 329 336 336 334 333 331 334 341 350 357 4 5 2 343 303 243 225 218 211
267 269 271 276 281 276 279 281 284 289 293 297 297 298 299 300 304 308 311 313 315 318 322 325 328 326 334 336 332 332 332 333 339 349 354 3 9 10 3 316 260 227 217 211
265 267 273 273 274 271 278 280 284 288 292 292 294 295 296 299 302 305 308 310 312 313 318 322 325 323 329 334 332 331 332 332 336 349 354 359 7 15 6 349 288 238 222 212
265 265 267 269 268 272 274 279 280 286 288 289 292 296 295 296 300 304 306 307 307 307 310 316 321 320 324 331 334 334 331 333 333 342 353 358 0 6 14 3 330 259 228 220
Height
10715 10715 10711 10708 10708 10706 10704 10699 10697 10693 10688 10683 10681 10674 10668 10667 10664 10660 10654 10653 10646 10636 10627 10622 10611 10600 10594 10587 10583 10585 10584 10587 10591 10592 10593 10598 10599 10604 10608 10613 10621 10627 10637 10646
10702 10702 10699 10696 10695 10692 10688 10685 10682 10676 10672 10667 10663 10659 10650 10645 10643 10640 10632 10629 10622 10615 10605 10598 10590 10576 10566 10560 10554 10555 10556 10558 10561 10563 10564 10569 10570 10573 10577 10580 10587 10598 10607 10614
10692 10690 10688 10685 10681 10678 10675 10672 10667 10664 10655 10648 10646 10644 10634 10628 10626 10618 10609 10605 10598 10590 10583 10575 10565 10554 10543 10536 10529 10528 10527 10528 10533 10534 10536 10539 10543 10542 10546 10551 10557 10564 10575 10584
10681 10678 10676 10673 10669 10665 10660 10657 10653 10647 10642 10637 10627 10628 10620 10616 10607 10602 10593 10588 10578 10571 10563 10553 10544 10532 10520 10515 10509 10503 10501 10501 10503 10507 10509 10511 10513 10517 10517 10521 10530 10536 10543 10553
10669 10666 10662 10658 10656 10652 10648 10644 10639 10634 10628 10623 10611 10607 10600 10599 10591 10584 10577 10570 10560 10551 10544 10535 10523 10509 10496 10491 10486 10479 10476 10476 10478 10478 10480 10481 10485 10490 10492 10497 10499 10505 10512 10522
10657 10654 10652 10648 10644 10639 10635 10630 10625 10620 10614 10610 10602 10592 10586 10580 10576 10567 10557 10549 10539 10532 10520 10511 10500 10487 10475 10464 10459 10458 10456 10450 10450 10449 10448 10448 10453 10459 10465 10467 10470 10475 10484 10492
10646 10643 10641 10637 10632 10628 10623 10618 10612 10609 10603 10598 10591 10582 10569 10563 10564 10552 10542 10531 10523 10516 10506 10495 10484 10469 10454 10442 10436 10432 10430 10427 10424 10420 10418 10422 10420 10422 10427 10435 10445 10449 10453 10464
10636 10632 10630 10626 10622 10616 10610 10605 10599 10596 10594 10590 10583 10571 10559 10552 10549 10536 10528 10518 10509 10503 10493 10481 10466 10448 10435 10424 10418 10410 10403 10401 10398 10394 10391 10387 10387 10394 10401 10407 10417 10421 10424 10428
10627 10623 10619 10615 10610 10605 10600 10593 10588 10583 10579 10576 10571 10559 10545 10540 10539 10525 10514 10504 10495 10485 10474 10461 10447 10430 10418 10408 10401 10393 10384 10377 10370 10367 10364 10362 10357 10357 10366 10376 10385 10386 10393 10401
10616 10614 10606 10603 10598 10592 10588 10581 10577 10571 10566 10565 10561 10548 10535 10530 10525 10515 10503 10490 10479 10466 10455 10441 10428 10414 10401 10394 10386 10375 10367 10360 10353 10347 10339 10330 10327 10329 10336 10339 10344 10351 10359 10375
10603 10602 10596 10591 10587 10581 10575 10568 10563 10558 10551 10547 10546 10535 10523 10517 10509 10501 10487 10474 10463 10451 10442 10428 10411 10396 10385 10377 10368 10360 10351 10343 10337 10328 10317 10307 10301 10306 10307 10305 10310 10319 10329 10344
10589 10590 10585 10580 10575 10570 10563 10554 10550 10546 10541 10535 10528 10527 10510 10505 10496 10488 10474 10457 10447 10437 10427 10412 10398 10383 10370 10360 10350 10339 10329 10324 10318 10309 10295 10284 10281 10280 10277 10278 10284 10293 10304 10317
10575 10575 10571 10569 10563 10558 10552 10543 10538 10533 10524 10525 10517 10511 10491 10492 10483 10473 10461 10445 10434 10421 10409 10398 10384 10369 10357 10345 10335 10323 10312 10305 10296 10284 10270 10260 10258 10255 10255 10258 10265 10273 10283 10295
10561 10560 10555 10552 10551 10550 10542 10531 10526 10522 10512 10515 10502 10505 10475 10475 10469 10458 10447 10432 10419 10406 10396 10387 10374 10359 10345 10332 10320 10309 10298 10289 10278 10265 10249 10242 10238 10236 10236 10238 10246 10255 10263 10273
10546 10548 10541 10537 10534 10536 10533 10521 10514 10510 10496 10500 10492 10486 10484 10465 10459 10448 10437 10422 10412 10399 10384 10373 10364 10349 10335 10321 10307 10296 10284 10273 10260 10247 10232 10227 10221 10218 10219 10222 10229 10236 10247 10258
10530 10533 10527 10528 10518 10519 10523 10504 10500 10496 10487 10486 10478 10469 10467 10456 10446 10437 10428 10415 10404 10392 10376 10364 10352 10338 10323 10309 10296 10285 10272 10260 10247 10235 10219 10213 10206 10201 10202 10205 10210 10217 10225 10234
10516 10513 10513 10519 10508 10505 10511 10492 10486 10481 10472 10471 10464 10456 10452 10445 10434 10430 10420 10407 10394 10381 10367 10355 10345 10332 10315 10299 10286 10274 10260 10248 10235 10224 10207 10199 10191 10187 10185 10185 10189 10195 10201 10209
10501 10497 10495 10500 10498 10500 10493 10485 10476 10470 10462 10458 10455 10447 10439 10432 10424 10418 10407 10398 10384 10372 10357 10347 10338 10323 10308 10291 10276 10263 10251 10239 10224 10212 10197 10188 10182 10177 10173 10172 10175 10180 10187 10196
10483 10479 10477 10479 10482 10488 10483 10471 10463 10459 10462 10440 10446 10438 10428 10419 10412 10404 10395 10386 10377 10367 10353 10340 10331 10317 10302 10286 10272 10258 10245 10232 10220 10207 10190 10182 10174 10168 10165 10165 10166 10170 10177 10186
10467 10461 10461 10463 10462 10474 10468 10457 10449 10447 10449 10439 10433 10429 10418 10407 10402 10392 10387 10379 10369 10357 10345 10332 10322 10307 10296 10281 10269 10255 10241 10229 10218 10205 10188 10178 10169 10163 10161 10159 10161 10165 10170 10178
10445 10445 10443 10444 10447 10459 10452 10439 10437 10431 10433 10427 10423 10418 10409 10397 10391 10385 10376 10368 10359 10349 10337 10324 10316 10302 10291 10278 10265 10253 10240 10228 10218 10204 10191 10177 10168 10162 10159 10158 10160 10162 10169 10180
10424 10425 10433 10427 10430 10442 10429 10426 10420 10418 10416 10415 10413 10407 10400 10390 10382 10375 10364 10357 10349 10338 10329 10317 10309 10296 10286 10275 10262 10251 10239 10226 10218 10204 10191 10179 10169 10164 10163 10162 10162 10165 10169 10177
10403 10408 10410 10417 10424 10421 10413 10407 10404 10405 10407 10402 10399 10394 10390 10380 10371 10364 10354 10345 10339 10331 10323 10311 10302 10290 10282 10272 10260 10249 10238 10226 10216 10206 10194 10182 10174 10168 10165 10165 10165 10167 10172 10180
10385 10387 10395 10401 10415 10401 10397 10391 10387 10394 10394 10389 10385 10381 10377 10369 10359 10354 10344 10334 10329 10321 10315 10306 10297 10285 10276 10268 10257 10247 10238 10226 10217 10208 10198 10190 10179 10173 10172 10168 10169 10171 10175 10182
10364 10370 10382 10389 10391 10378 10382 10375 10372 10376 10379 10375 10370 10366 10361 10357 10349 10343 10332 10324 10319 10311 10306 10301 10292 10281 10273 10265 10254 10245 10236 10228 10218 10209 10200 10191 10186 10179 10174 10173 10173 10175 10177 10183
10350 10356 10358 10368 10366 10365 10364 10360 10358 10364 10362 10360 10356 10349 10344 10339 10336 10330 10320 10313 10308 10304 10298 10293 10286 10277 10270 10262 10251 10243 10235 10229 10220 10212 10204 10196 10189 10186 10179 10175 10173 10174 10178 10186